TimeMDT,TemperatureF,Dew PointF,Humidity,Sea Level PressureIn,VisibilityMPH,Wind Direction,Wind SpeedMPH,Gust SpeedMPH,PrecipitationIn,Events,Conditions,WindDirDegrees,DateUTC
12:15 AM,51.8,37.4,58,30.19,10.0,WSW,6.9,-,N/A,,Clear,240,2013-05-10 06:15:00
12:35 AM,51.8,37.4,58,30.19,10.0,SW,8.1,-,N/A,,Clear,230,2013-05-10 06:35:00
12:55 AM,50.0,35.6,58,30.19,10.0,SW,9.2,-,N/A,,Clear,230,2013-05-10 06:55:00
1:15 AM,51.8,35.6,54,30.19,10.0,SW,9.2,-,N/A,,Clear,230,2013-05-10 07:15:00
1:35 AM,51.8,35.6,54,30.19,10.0,WSW,8.1,-,N/A,,Clear,240,2013-05-10 07:35:00
1:55 AM,51.8,35.6,54,30.19,10.0,WSW,4.6,-,N/A,,Clear,240,2013-05-10 07:55:00
2:15 AM,48.2,33.8,58,30.19,10.0,SW,9.2,-,N/A,,Clear,220,2013-05-10 08:15:00
2:35 AM,48.2,33.8,58,30.19,10.0,SW,10.4,-,N/A,,Clear,220,2013-05-10 08:35:00
2:55 AM,51.8,33.8,50,30.19,10.0,WSW,10.4,-,N/A,,Clear,240,2013-05-10 08:55:00
3:15 AM,48.2,33.8,58,30.19,10.0,SW,6.9,-,N/A,,Clear,230,2013-05-10 09:15:00
3:35 AM,48.2,33.8,58,30.20,10.0,SW,9.2,-,N/A,,Clear,220,2013-05-10 09:35:00
4:15 AM,48.2,33.8,58,30.21,10.0,SW,4.6,-,N/A,,Clear,230,2013-05-10 10:15:00
4:35 AM,48.2,32.0,54,30.21,10.0,SW,6.9,-,N/A,,Clear,220,2013-05-10 10:35:00
4:55 AM,46.4,30.2,53,30.21,10.0,Calm,Calm,-,N/A,,Clear,0,2013-05-10 10:55:00
5:15 AM,48.2,32.0,54,30.21,10.0,SW,4.6,-,N/A,,Clear,220,2013-05-10 11:15:00
5:35 AM,46.4,32.0,57,30.21,10.0,SW,6.9,-,N/A,,Clear,220,2013-05-10 11:35:00
6:15 AM,48.2,32.0,54,30.21,10.0,WSW,4.6,-,N/A,,Clear,240,2013-05-10 12:15:00
6:35 AM,48.2,32.0,54,30.22,10.0,WSW,8.1,-,N/A,,Clear,240,2013-05-10 12:35:00
7:35 AM,53.6,33.8,47,30.23,10.0,WSW,6.9,-,N/A,,Scattered Clouds,250,2013-05-10 13:35:00
7:55 AM,55.4,32.0,41,30.23,10.0,WSW,6.9,-,N/A,,Partly Cloudy,240,2013-05-10 13:55:00
8:15 AM,57.2,32.0,38,30.23,10.0,WSW,8.1,-,N/A,,Clear,240,2013-05-10 14:15:00
8:35 AM,59.0,33.8,39,30.23,10.0,WSW,6.9,-,N/A,,Clear,240,2013-05-10 14:35:00
8:55 AM,60.8,33.8,36,30.23,10.0,WSW,6.9,-,N/A,,Clear,240,2013-05-10 14:55:00
9:55 AM,66.2,33.8,30,30.23,10.0,Calm,Calm,-,N/A,,Clear,0,2013-05-10 15:55:00
10:15 AM,66.2,33.8,30,30.23,10.0,North,5.8,-,N/A,,Clear,350,2013-05-10 16:15:00
10:35 AM,66.2,33.8,30,30.24,10.0,North,10.4,-,N/A,,Clear,360,2013-05-10 16:35:00
11:15 AM,66.2,35.6,32,30.25,10.0,NNE,8.1,18.4,N/A,,Clear,20,2013-05-10 17:15:00
11:35 AM,66.2,35.6,32,30.25,10.0,NNW,6.9,-,N/A,,Clear,340,2013-05-10 17:35:00
11:55 AM,68.0,28.4,23,30.26,10.0,NNE,5.8,19.6,N/A,,Clear,30,2013-05-10 17:55:00
12:15 PM,68.0,30.2,24,30.26,10.0,NE,4.6,-,N/A,,Partly Cloudy,40,2013-05-10 18:15:00
12:35 PM,69.8,30.2,23,30.25,10.0,NE,12.7,18.4,N/A,,Clear,40,2013-05-10 18:35:00
12:55 PM,69.8,32.0,25,30.25,10.0,NE,10.4,17.3,N/A,,Clear,40,2013-05-10 18:55:00
1:15 PM,69.8,30.2,23,30.26,10.0,NNE,13.8,23.0,N/A,,Mostly Cloudy,20,2013-05-10 19:15:00
1:35 PM,64.4,32.0,30,30.28,10.0,North,24.2,33.4,N/A,,Mostly Cloudy,360,2013-05-10 19:35:00
1:55 PM,64.4,33.8,32,30.29,10.0,NNW,21.9,31.1,N/A,,Overcast,330,2013-05-10 19:55:00
2:15 PM,66.2,37.4,35,30.29,10.0,NW,18.4,32.2,N/A,,Scattered Clouds,320,2013-05-10 20:15:00
2:35 PM,62.6,37.4,39,30.30,10.0,NW,16.1,23.0,N/A,,Scattered Clouds,310,2013-05-10 20:35:00
2:55 PM,64.4,37.4,37,30.30,10.0,NNW,19.6,25.3,N/A,,Overcast,330,2013-05-10 20:55:00
3:15 PM,64.4,39.2,40,30.30,10.0,North,19.6,25.3,N/A,,Mostly Cloudy,360,2013-05-10 21:15:00
3:35 PM,64.4,37.4,37,30.30,10.0,NNW,17.3,25.3,N/A,,Mostly Cloudy,340,2013-05-10 21:35:00
4:15 PM,64.4,39.2,40,30.29,10.0,North,15.0,21.9,N/A,,Mostly Cloudy,360,2013-05-10 22:15:00
4:35 PM,66.2,37.4,35,30.29,10.0,North,17.3,24.2,N/A,,Clear,10,2013-05-10 22:35:00
4:55 PM,66.2,39.2,37,30.29,10.0,North,17.3,21.9,N/A,,Clear,350,2013-05-10 22:55:00
5:15 PM,64.4,37.4,37,30.29,10.0,NNE,16.1,21.9,N/A,,Clear,20,2013-05-10 23:15:00
5:35 PM,64.4,37.4,37,30.29,10.0,North,16.1,21.9,N/A,,Clear,350,2013-05-10 23:35:00
6:15 PM,64.4,37.4,37,30.29,10.0,North,16.1,19.6,N/A,,Partly Cloudy,360,2013-05-11 00:15:00
6:35 PM,64.4,35.6,34,30.29,10.0,North,15.0,-,N/A,,Clear,350,2013-05-11 00:35:00
6:55 PM,62.6,35.6,37,30.29,10.0,North,13.8,-,N/A,,Clear,360,2013-05-11 00:55:00
7:15 PM,62.6,35.6,37,30.30,10.0,North,13.8,17.3,N/A,,Mostly Cloudy,350,2013-05-11 01:15:00
7:35 PM,62.6,35.6,37,30.30,10.0,North,10.4,-,N/A,,Mostly Cloudy,350,2013-05-11 01:35:00
7:55 PM,60.8,35.6,39,30.31,10.0,North,15.0,-,N/A,,Mostly Cloudy,350,2013-05-11 01:55:00
8:15 PM,60.8,35.6,39,30.32,10.0,North,13.8,18.4,N/A,,Overcast,350,2013-05-11 02:15:00
8:55 PM,57.2,33.8,41,30.34,10.0,North,8.1,-,N/A,,Overcast,350,2013-05-11 02:55:00
9:15 PM,57.2,33.8,41,30.34,10.0,NNW,4.6,-,N/A,,Mostly Cloudy,340,2013-05-11 03:15:00
9:35 PM,55.4,33.8,44,30.35,10.0,WNW,4.6,-,N/A,,Partly Cloudy,290,2013-05-11 03:35:00
9:55 PM,55.4,33.8,44,30.36,10.0,Calm,Calm,-,N/A,,Clear,0,2013-05-11 03:55:00
10:15 PM,53.6,33.8,47,30.36,10.0,WNW,4.6,-,N/A,,Clear,300,2013-05-11 04:15:00
10:35 PM,51.8,33.8,50,30.36,10.0,NW,3.5,-,N/A,,Clear,310,2013-05-11 04:35:00
10:55 PM,51.8,32.0,47,30.36,10.0,Calm,Calm,-,N/A,,Clear,0,2013-05-11 04:55:00
11:15 PM,50.0,30.2,47,30.37,10.0,Calm,Calm,-,N/A,,Clear,0,2013-05-11 05:15:00
11:35 PM,51.8,30.2,44,30.37,10.0,Calm,Calm,-,N/A,,Clear,0,2013-05-11 05:35:00
11:55 PM,50.0,30.2,47,30.37,10.0,Calm,Calm,-,N/A,,Clear,0,2013-05-11 05:55:00